20040716,000009,267865,29.868167,-123.542333,18.950,33.201,NaN,NaN
20040716,000039,267895,29.867500,-123.543667,18.948,33.199,NaN,NaN
20040716,000109,267925,29.866667,-123.545167,18.948,33.199,NaN,NaN
20040716,000139,267955,29.866000,-123.546500,18.950,33.199,NaN,NaN
20040716,000209,267985,29.865333,-123.548000,18.950,33.200,NaN,NaN
20040716,000239,268015,29.864500,-123.549333,18.946,33.199,NaN,NaN
20040716,000309,268045,29.863833,-123.550667,18.943,33.201,NaN,NaN
20040716,000339,268075,29.863000,-123.552167,18.942,33.202,NaN,NaN
20040716,000409,268105,29.862333,-123.553500,18.940,33.202,NaN,NaN
20040716,000439,268135,29.861667,-123.555000,18.938,33.201,NaN,NaN
20040716,000509,268165,29.861000,-123.556333,18.937,33.202,NaN,NaN
20040716,000539,268195,29.860167,-123.557667,18.938,33.201,NaN,NaN
20040716,000609,268225,29.859500,-123.559167,18.942,33.200,NaN,NaN
20040716,000639,268255,29.858667,-123.560500,18.941,33.201,NaN,NaN
20040716,000709,268285,29.858000,-123.562000,18.943,33.201,NaN,NaN
20040716,000739,268315,29.857333,-123.563333,18.942,33.201,NaN,NaN
20040716,000809,268345,29.856500,-123.564833,18.941,33.200,NaN,NaN
20040716,000839,268375,29.855833,-123.566167,18.944,33.201,NaN,NaN
20040716,000909,268405,29.855167,-123.567667,18.944,33.200,NaN,NaN
20040716,000939,268435,29.854333,-123.569000,18.944,33.201,NaN,NaN
20040716,001009,268465,29.853667,-123.570333,18.939,33.201,NaN,NaN
20040716,001039,268495,29.853000,-123.571833,18.933,33.202,NaN,NaN
20040716,001109,268525,29.852167,-123.573333,18.932,33.202,NaN,NaN
20040716,001139,268555,29.851500,-123.574667,18.930,33.202,NaN,NaN
20040716,001209,268585,29.850667,-123.576000,18.929,33.201,NaN,NaN
20040716,001239,268615,29.850000,-123.577500,18.930,33.201,NaN,NaN
20040716,001309,268645,29.849333,-123.578833,18.931,33.201,NaN,NaN
20040716,001339,268675,29.849000,-123.580500,18.931,33.202,NaN,NaN
20040716,001409,268705,29.848833,-123.582000,18.929,33.203,NaN,NaN
20040716,001439,268735,29.848833,-123.583500,18.927,33.206,NaN,NaN
20040716,001509,268765,29.848833,-123.584500,18.928,33.206,NaN,NaN
20040716,001539,268795,29.849167,-123.585333,18.927,33.206,NaN,NaN
20040716,001609,268825,29.849167,-123.586000,18.928,33.205,NaN,NaN
20040716,001639,268855,29.849500,-123.586500,18.932,33.206,NaN,NaN
20040716,001709,268885,29.849833,-123.586833,18.933,33.206,NaN,NaN
20040716,001739,268915,29.850167,-123.586833,18.932,33.206,NaN,NaN
20040716,001809,268945,29.850500,-123.586833,18.934,33.206,NaN,NaN
20040716,001839,268975,29.850667,-123.586833,18.933,33.206,NaN,NaN
20040716,001909,269005,29.850833,-123.586667,18.932,33.206,NaN,NaN
20040716,001939,269035,29.850833,-123.586667,18.932,33.206,NaN,NaN
20040716,002009,269065,29.850833,-123.586500,18.934,33.206,NaN,NaN
20040716,002039,269095,29.850833,-123.586500,18.936,33.206,NaN,NaN
20040716,002109,269125,29.850667,-123.586333,18.935,33.206,NaN,NaN
20040716,002139,269155,29.850667,-123.586167,18.935,33.207,NaN,NaN
20040716,002209,269185,29.850667,-123.586167,18.933,33.207,NaN,NaN
20040716,002239,269215,29.850667,-123.586000,18.931,33.207,NaN,NaN
20040716,002309,269245,29.850667,-123.586000,18.929,33.207,NaN,NaN
20040716,002339,269275,29.850833,-123.586000,18.929,33.207,NaN,NaN
20040716,002409,269305,29.850833,-123.586000,18.929,33.207,NaN,NaN
20040716,002439,269335,29.850833,-123.586000,18.928,33.207,NaN,NaN
20040716,002509,269365,29.850833,-123.586000,18.927,33.208,NaN,NaN
20040716,002539,269395,29.851000,-123.586000,18.927,33.207,NaN,NaN
20040716,002609,269425,29.851167,-123.586000,18.929,33.207,NaN,NaN
20040716,002639,269455,29.851167,-123.586167,18.930,33.207,NaN,NaN
20040716,002709,269485,29.851167,-123.586000,18.931,33.207,NaN,NaN
20040716,002739,269515,29.851167,-123.586000,18.932,33.208,NaN,NaN
20040716,002809,269545,29.851167,-123.586000,18.932,33.208,NaN,NaN
20040716,002839,269575,29.851167,-123.586000,18.930,33.208,NaN,NaN
20040716,002909,269605,29.851167,-123.586000,18.930,33.208,NaN,NaN
20040716,002939,269635,29.851000,-123.586000,18.930,33.208,NaN,NaN
20040716,003009,269665,29.850833,-123.586000,18.933,33.207,NaN,NaN
20040716,003039,269695,29.850667,-123.585833,18.936,33.208,NaN,NaN
20040716,003109,269725,29.850500,-123.585833,18.936,33.208,NaN,NaN
20040716,003139,269755,29.850500,-123.585667,18.935,33.208,NaN,NaN
20040716,003209,269785,29.850333,-123.585667,18.934,33.207,NaN,NaN
20040716,003239,269815,29.850333,-123.585500,18.933,33.208,NaN,NaN
20040716,003309,269845,29.850333,-123.585333,18.931,33.208,NaN,NaN
20040716,003339,269875,29.850167,-123.585333,18.930,33.208,NaN,NaN
20040716,003409,269905,29.850167,-123.585333,18.931,33.207,NaN,NaN
20040716,003439,269935,29.850167,-123.585333,18.929,33.207,NaN,NaN
20040716,003509,269965,29.850000,-123.585333,18.928,33.207,NaN,NaN
20040716,003539,269995,29.850000,-123.585167,18.932,33.208,NaN,NaN
20040716,003609,270025,29.849833,-123.585167,18.930,33.208,NaN,NaN
20040716,003639,270055,29.849667,-123.585167,18.925,33.208,NaN,NaN
20040716,003709,270085,29.849667,-123.585000,18.927,33.208,NaN,NaN
20040716,003739,270115,29.849500,-123.585000,18.926,33.209,NaN,NaN
20040716,003809,270145,29.849500,-123.585000,18.927,33.208,NaN,NaN
20040716,003839,270175,29.849333,-123.584833,18.927,33.209,NaN,NaN
20040716,003909,270205,29.849333,-123.584833,18.928,33.208,NaN,NaN
20040716,003939,270235,29.849167,-123.584833,18.927,33.208,NaN,NaN
20040716,004009,270265,29.849000,-123.584833,18.929,33.208,NaN,NaN
20040716,004039,270295,29.849000,-123.584833,18.931,33.209,NaN,NaN
20040716,004109,270325,29.848833,-123.584833,18.934,33.208,NaN,NaN
20040716,004139,270355,29.848667,-123.584833,18.936,33.209,NaN,NaN
20040716,004209,270385,29.848500,-123.584833,18.932,33.210,NaN,NaN
20040716,004239,270415,29.848500,-123.584833,18.933,33.209,NaN,NaN
20040716,004309,270445,29.848333,-123.584833,18.933,33.209,NaN,NaN
20040716,004339,270475,29.848167,-123.584833,18.932,33.209,NaN,NaN
20040716,004409,270505,29.848167,-123.584833,18.931,33.210,NaN,NaN
20040716,004439,270535,29.848000,-123.584833,18.932,33.209,NaN,NaN
20040716,004509,270565,29.847833,-123.585000,18.932,33.210,NaN,NaN
20040716,004539,270595,29.847667,-123.585000,18.932,33.209,NaN,NaN
20040716,004609,270625,29.847667,-123.585000,18.931,33.210,NaN,NaN
20040716,004639,270655,29.847500,-123.585000,18.931,33.210,NaN,NaN
20040716,004709,270685,29.847333,-123.585000,18.932,33.210,NaN,NaN
20040716,004739,270715,29.847333,-123.585000,18.933,33.210,NaN,NaN
20040716,004809,270745,29.847167,-123.585000,18.931,33.210,NaN,NaN
20040716,004839,270775,29.847167,-123.585000,18.930,33.210,NaN,NaN
20040716,004909,270805,29.847000,-123.584833,18.929,33.210,NaN,NaN
20040716,004939,270835,29.846833,-123.584833,18.931,33.210,NaN,NaN
20040716,005009,270865,29.846667,-123.584833,18.931,33.210,NaN,NaN
20040716,005039,270895,29.846667,-123.585000,18.931,33.210,NaN,NaN
20040716,005109,270925,29.846500,-123.584833,18.931,33.210,NaN,NaN
20040716,005139,270955,29.846500,-123.584833,18.930,33.211,NaN,NaN
20040716,005209,270985,29.846333,-123.584667,18.930,33.211,NaN,NaN
20040716,005239,271015,29.846333,-123.584667,18.930,33.210,NaN,NaN
20040716,005309,271045,29.846167,-123.584667,18.931,33.210,NaN,NaN
20040716,005339,271075,29.846000,-123.584500,18.933,33.211,NaN,NaN
20040716,005409,271105,29.846000,-123.584500,18.933,33.211,NaN,NaN
20040716,005439,271135,29.845833,-123.584500,18.934,33.211,NaN,NaN
20040716,005509,271165,29.845667,-123.584500,18.936,33.211,NaN,NaN
20040716,005539,271195,29.845667,-123.584500,18.934,33.212,NaN,NaN
20040716,005609,271225,29.845500,-123.584500,18.934,33.212,NaN,NaN
20040716,005639,271255,29.845333,-123.584500,18.937,33.212,NaN,NaN
20040716,005709,271285,29.845167,-123.584500,18.939,33.212,NaN,NaN
20040716,005739,271315,29.845167,-123.584500,18.941,33.212,NaN,NaN
20040716,005809,271345,29.845000,-123.584333,18.938,33.213,NaN,NaN
20040716,005839,271375,29.845000,-123.584333,18.939,33.213,NaN,NaN
20040716,005909,271405,29.844833,-123.584333,18.938,33.213,NaN,NaN
20040716,005939,271435,29.844667,-123.584333,18.936,33.213,NaN,NaN
20040716,010009,271465,29.844500,-123.584167,18.934,33.213,NaN,NaN
20040716,010039,271495,29.844500,-123.584167,18.939,33.213,NaN,NaN
20040716,010109,271525,29.844333,-123.584000,18.938,33.214,NaN,NaN
20040716,010139,271555,29.844333,-123.584000,18.936,33.214,NaN,NaN
20040716,010209,271585,29.844167,-123.583833,18.935,33.213,NaN,NaN
20040716,010239,271615,29.844167,-123.583833,18.935,33.214,NaN,NaN
20040716,010309,271645,29.844000,-123.583833,18.936,33.213,NaN,NaN
20040716,010339,271675,29.843833,-123.583833,18.939,33.214,NaN,NaN
20040716,010409,271705,29.843833,-123.583833,18.936,33.214,NaN,NaN
20040716,010439,271735,29.843667,-123.583833,18.937,33.214,NaN,NaN
20040716,010509,271765,29.843500,-123.584000,18.937,33.214,NaN,NaN
20040716,010539,271795,29.843333,-123.584000,18.935,33.214,NaN,NaN
20040716,010609,271825,29.843333,-123.584000,18.938,33.215,NaN,NaN
20040716,010639,271855,29.843167,-123.584000,18.939,33.215,NaN,NaN
20040716,010709,271885,29.843000,-123.584000,18.940,33.215,NaN,NaN
20040716,010739,271915,29.842833,-123.584000,18.939,33.215,NaN,NaN
20040716,010809,271945,29.842833,-123.584167,18.940,33.214,NaN,NaN
20040716,010839,271975,29.842667,-123.584167,18.946,33.215,NaN,NaN
20040716,010909,272005,29.842500,-123.584333,18.949,33.215,NaN,NaN
20040716,010939,272035,29.842500,-123.584167,18.945,33.215,NaN,NaN
20040716,011009,272065,29.842333,-123.584167,18.941,33.215,NaN,NaN
20040716,011039,272095,29.842333,-123.584000,18.940,33.215,NaN,NaN
20040716,011109,272125,29.842333,-123.583833,18.941,33.215,NaN,NaN
20040716,011139,272155,29.842333,-123.583833,18.940,33.215,NaN,NaN
20040716,011209,272185,29.842333,-123.583833,18.938,33.215,NaN,NaN
20040716,011239,272215,29.842167,-123.583833,18.941,33.215,NaN,NaN
20040716,011309,272245,29.842167,-123.584000,18.945,33.214,NaN,NaN
20040716,011339,272275,29.842167,-123.584000,18.945,33.215,NaN,NaN
20040716,011409,272305,29.842167,-123.584000,18.944,33.214,NaN,NaN
20040716,011439,272335,29.842167,-123.584000,18.944,33.215,NaN,NaN
20040716,011509,272365,29.842167,-123.584167,18.943,33.215,NaN,NaN
20040716,011539,272395,29.842167,-123.584167,18.942,33.215,NaN,NaN
20040716,011609,272425,29.842000,-123.584333,18.941,33.215,NaN,NaN
20040716,011639,272455,29.841833,-123.584500,18.939,33.215,NaN,NaN
20040716,011709,272485,29.841833,-123.584667,18.938,33.215,NaN,NaN
20040716,011739,272515,29.841833,-123.584833,18.938,33.216,NaN,NaN
20040716,011809,272545,29.842000,-123.585000,18.939,33.215,NaN,NaN
20040716,011839,272575,29.842000,-123.585167,18.939,33.215,NaN,NaN
20040716,011909,272605,29.842167,-123.585333,18.939,33.215,NaN,NaN
20040716,011939,272635,29.842167,-123.585333,18.939,33.215,NaN,NaN
20040716,012009,272665,29.842167,-123.585500,18.939,33.215,NaN,NaN
20040716,012039,272695,29.842167,-123.585667,18.941,33.215,NaN,NaN
20040716,012109,272725,29.842000,-123.585833,18.939,33.215,NaN,NaN
20040716,012139,272755,29.842000,-123.585833,18.936,33.215,NaN,NaN
20040716,012209,272785,29.841833,-123.586000,18.935,33.215,NaN,NaN
20040716,012239,272815,29.841833,-123.586167,18.935,33.215,NaN,NaN
20040716,012309,272845,29.841667,-123.586167,18.937,33.215,NaN,NaN
20040716,012339,272875,29.841500,-123.586167,18.941,33.215,NaN,NaN
20040716,012409,272905,29.841333,-123.586333,18.945,33.215,NaN,NaN
20040716,012439,272935,29.841333,-123.586333,18.943,33.216,NaN,NaN
20040716,012509,272965,29.841167,-123.586333,18.941,33.216,NaN,NaN
20040716,012539,272995,29.841167,-123.586500,18.941,33.216,NaN,NaN
20040716,012609,273025,29.841000,-123.586667,18.942,33.215,NaN,NaN
20040716,012639,273055,29.841000,-123.586833,18.941,33.215,NaN,NaN
20040716,012709,273085,29.841000,-123.587167,18.940,33.216,NaN,NaN
20040716,012739,273115,29.841167,-123.587333,18.937,33.216,NaN,NaN
20040716,012809,273145,29.841333,-123.587500,18.937,33.215,NaN,NaN
20040716,012839,273175,29.841500,-123.587667,18.938,33.216,NaN,NaN
20040716,012909,273205,29.841833,-123.587833,18.939,33.215,NaN,NaN
20040716,012939,273235,29.842000,-123.588000,18.941,33.215,NaN,NaN
20040716,013009,273265,29.842167,-123.588167,18.942,33.215,NaN,NaN
20040716,013039,273295,29.842333,-123.588167,18.941,33.215,NaN,NaN
20040716,013109,273325,29.842500,-123.588333,18.943,33.215,NaN,NaN
20040716,013139,273355,29.842667,-123.588500,18.944,33.215,NaN,NaN
20040716,013209,273385,29.842833,-123.588667,18.939,33.216,NaN,NaN
20040716,013239,273415,29.843000,-123.588833,18.941,33.215,NaN,NaN
20040716,013309,273445,29.843167,-123.589000,18.941,33.215,NaN,NaN
20040716,013339,273475,29.843333,-123.589167,18.942,33.215,NaN,NaN
20040716,013409,273505,29.843500,-123.589333,18.942,33.214,NaN,NaN
20040716,013439,273535,29.843667,-123.589500,18.941,33.212,NaN,NaN
20040716,013509,273565,29.843833,-123.589667,18.940,33.213,NaN,NaN
20040716,013539,273595,29.844000,-123.589833,18.940,33.214,NaN,NaN
20040716,013609,273625,29.844167,-123.590000,18.939,33.213,NaN,NaN
20040716,013639,273655,29.844167,-123.590167,18.936,33.213,NaN,NaN
20040716,013709,273685,29.844333,-123.590333,18.936,33.213,NaN,NaN
20040716,013739,273715,29.844500,-123.590500,18.935,33.213,NaN,NaN
20040716,013809,273745,29.844667,-123.590667,18.937,33.212,NaN,NaN
20040716,013839,273775,29.844833,-123.590833,18.936,33.212,NaN,NaN
20040716,013909,273805,29.845000,-123.591000,18.935,33.212,NaN,NaN
20040716,013939,273835,29.845167,-123.591167,18.936,33.212,NaN,NaN
20040716,014009,273865,29.845167,-123.591333,18.937,33.211,NaN,NaN
20040716,014039,273895,29.845333,-123.591667,18.936,33.211,NaN,NaN
20040716,014109,273925,29.845500,-123.591833,18.936,33.211,NaN,NaN
20040716,014139,273955,29.845667,-123.592000,18.936,33.210,NaN,NaN
20040716,014209,273985,29.845833,-123.592167,18.938,33.211,NaN,NaN
20040716,014239,274015,29.846000,-123.592333,18.936,33.212,NaN,NaN
20040716,014309,274045,29.846167,-123.592500,18.934,33.212,NaN,NaN
20040716,014339,274075,29.846333,-123.592667,18.932,33.212,NaN,NaN
20040716,014409,274105,29.846333,-123.592833,18.935,33.211,NaN,NaN
20040716,014439,274135,29.846667,-123.593000,18.934,33.211,NaN,NaN
20040716,014509,274165,29.846667,-123.593167,18.933,33.212,NaN,NaN
20040716,014539,274195,29.846833,-123.593333,18.934,33.211,NaN,NaN
20040716,014609,274225,29.847167,-123.593500,18.931,33.210,NaN,NaN
20040716,014639,274255,29.847333,-123.593667,18.933,33.210,NaN,NaN
20040716,014709,274285,29.847667,-123.593667,18.933,33.211,NaN,NaN
20040716,014739,274315,29.848000,-123.593667,18.933,33.210,NaN,NaN
20040716,014809,274345,29.848167,-123.593667,18.933,33.210,NaN,NaN
20040716,014839,274375,29.848500,-123.593667,18.933,33.211,NaN,NaN
20040716,014909,274405,29.848667,-123.593667,18.932,33.211,NaN,NaN
20040716,014939,274435,29.848833,-123.593833,18.936,33.210,NaN,NaN
20040716,015009,274465,29.849000,-123.593833,18.933,33.211,NaN,NaN
20040716,015039,274495,29.849333,-123.594000,18.932,33.210,NaN,NaN
20040716,015109,274525,29.849500,-123.594000,18.932,33.210,NaN,NaN
20040716,015139,274555,29.849500,-123.594167,18.932,33.211,NaN,NaN
20040716,015209,274585,29.849667,-123.594333,18.932,33.210,NaN,NaN
20040716,015239,274615,29.849833,-123.594500,18.931,33.210,NaN,NaN
20040716,015309,274645,29.850167,-123.594500,18.927,33.212,NaN,NaN
20040716,015339,274675,29.850333,-123.594667,18.929,33.211,NaN,NaN
20040716,015409,274705,29.850500,-123.594833,18.930,33.211,NaN,NaN
20040716,015439,274735,29.850667,-123.594833,18.930,33.210,NaN,NaN
20040716,015509,274765,29.851000,-123.595000,18.931,33.210,NaN,NaN
20040716,015539,274795,29.851167,-123.595000,18.931,33.211,NaN,NaN
20040716,015609,274825,29.851333,-123.595000,18.930,33.211,NaN,NaN
20040716,015639,274855,29.851667,-123.595167,18.931,33.210,NaN,NaN
20040716,015709,274885,29.851833,-123.595167,18.932,33.211,NaN,NaN
20040716,015739,274915,29.852167,-123.595167,18.931,33.211,NaN,NaN
20040716,015809,274945,29.852500,-123.595167,18.931,33.210,NaN,NaN
20040716,015839,274975,29.852667,-123.595167,18.930,33.212,NaN,NaN
20040716,015909,275005,29.853000,-123.595333,18.930,33.211,NaN,NaN
20040716,015939,275035,29.853167,-123.595333,18.930,33.211,NaN,NaN
20040716,020009,275065,29.853333,-123.595333,18.930,33.211,NaN,NaN
20040716,020039,275095,29.853667,-123.595333,18.928,33.211,NaN,NaN
20040716,020109,275125,29.853833,-123.595333,18.926,33.211,NaN,NaN
20040716,020139,275155,29.854000,-123.595333,18.927,33.210,NaN,NaN
20040716,020209,275185,29.854167,-123.595333,18.928,33.210,NaN,NaN
20040716,020239,275215,29.854333,-123.595500,18.927,33.211,NaN,NaN
20040716,020309,275245,29.854500,-123.595500,18.928,33.211,NaN,NaN
20040716,020339,275275,29.854667,-123.595500,18.926,33.210,NaN,NaN
20040716,020409,275305,29.854833,-123.595667,18.927,33.210,NaN,NaN
20040716,020439,275335,29.855000,-123.595667,18.926,33.210,NaN,NaN
20040716,020509,275365,29.855167,-123.595667,18.927,33.211,NaN,NaN
20040716,020539,275395,29.855333,-123.595833,18.926,33.211,NaN,NaN
20040716,020609,275425,29.855500,-123.595833,18.925,33.210,NaN,NaN
20040716,020639,275455,29.855833,-123.595833,18.926,33.211,NaN,NaN
20040716,020709,275485,29.856000,-123.595833,18.926,33.210,NaN,NaN
20040716,020739,275515,29.856333,-123.595833,18.927,33.210,NaN,NaN
20040716,020809,275545,29.856500,-123.595833,18.926,33.210,NaN,NaN
20040716,020839,275575,29.856667,-123.595833,18.925,33.210,NaN,NaN
20040716,020909,275605,29.856833,-123.595833,18.925,33.210,NaN,NaN
20040716,020939,275635,29.857000,-123.595833,18.925,33.210,NaN,NaN
20040716,021009,275665,29.857167,-123.595833,18.926,33.210,NaN,NaN
20040716,021039,275695,29.857333,-123.595833,18.926,33.210,NaN,NaN
20040716,021109,275725,29.857500,-123.595667,18.925,33.209,NaN,NaN
20040716,021139,275755,29.857667,-123.595667,18.924,33.210,NaN,NaN
20040716,021209,275785,29.857833,-123.595500,18.924,33.210,NaN,NaN
20040716,021239,275815,29.858167,-123.595500,18.923,33.210,NaN,NaN
20040716,021309,275845,29.858333,-123.595333,18.925,33.209,NaN,NaN
20040716,021339,275875,29.858667,-123.595333,18.924,33.209,NaN,NaN
20040716,021409,275905,29.859000,-123.595167,18.924,33.210,NaN,NaN
20040716,021439,275935,29.859167,-123.595167,18.924,33.210,NaN,NaN
20040716,021509,275965,29.859333,-123.595167,18.923,33.210,NaN,NaN
20040716,021539,275995,29.859500,-123.595167,18.924,33.209,NaN,NaN
20040716,021609,276025,29.859667,-123.595167,18.925,33.209,NaN,NaN
20040716,021639,276055,29.859833,-123.595167,18.926,33.209,NaN,NaN
20040716,021709,276085,29.860000,-123.595167,18.926,33.209,NaN,NaN
20040716,021739,276115,29.860333,-123.595000,18.924,33.209,NaN,NaN
20040716,021809,276145,29.860500,-123.594833,18.923,33.210,NaN,NaN
20040716,021839,276175,29.860500,-123.594500,18.923,33.209,NaN,NaN
20040716,021909,276205,29.860500,-123.594333,18.923,33.208,NaN,NaN
20040716,021939,276235,29.860667,-123.593833,18.923,33.208,NaN,NaN
20040716,022009,276265,29.860667,-123.593500,18.921,33.209,NaN,NaN
20040716,022039,276295,29.860667,-123.593167,18.922,33.209,NaN,NaN
20040716,022109,276325,29.860833,-123.592833,18.921,33.209,NaN,NaN
20040716,022139,276355,29.861000,-123.592667,18.921,33.208,NaN,NaN
20040716,022209,276385,29.861500,-123.592333,18.921,33.209,NaN,NaN
20040716,022239,276415,29.862167,-123.592333,18.921,33.209,NaN,NaN
20040716,022309,276445,29.862833,-123.592667,18.922,33.208,NaN,NaN
20040716,022339,276475,29.863667,-123.593333,18.922,33.209,NaN,NaN
20040716,022409,276505,29.864500,-123.594000,18.923,33.208,NaN,NaN
20040716,022439,276535,29.865500,-123.594667,18.923,33.207,NaN,NaN
20040716,022509,276565,29.866667,-123.595500,18.923,33.207,NaN,NaN
20040716,022539,276595,29.867667,-123.596167,18.924,33.208,NaN,NaN
20040716,022609,276625,29.868833,-123.597000,18.925,33.208,NaN,NaN
20040716,022639,276655,29.870000,-123.597833,18.925,33.208,NaN,NaN
20040716,022709,276685,29.871167,-123.598667,18.925,33.208,NaN,NaN
20040716,022739,276715,29.872333,-123.599333,18.924,33.208,NaN,NaN
20040716,022809,276745,29.873500,-123.600167,18.924,33.208,NaN,NaN
20040716,022839,276775,29.874500,-123.601000,18.925,33.207,NaN,NaN
20040716,022909,276805,29.875667,-123.601833,18.928,33.206,NaN,NaN
20040716,022939,276835,29.876833,-123.602667,18.928,33.206,NaN,NaN
20040716,023009,276865,29.878000,-123.603500,18.929,33.207,NaN,NaN
20040716,023039,276895,29.879167,-123.604333,18.928,33.207,NaN,NaN
20040716,023109,276925,29.880333,-123.605167,18.928,33.207,NaN,NaN
20040716,023139,276955,29.881333,-123.606000,18.928,33.207,NaN,NaN
20040716,023209,276985,29.882500,-123.606833,18.928,33.207,NaN,NaN
20040716,023239,277015,29.883667,-123.607667,18.929,33.207,NaN,NaN
20040716,023309,277045,29.884833,-123.608333,18.930,33.207,NaN,NaN
20040716,023339,277075,29.885833,-123.609333,18.932,33.211,NaN,NaN
20040716,023409,277105,29.887000,-123.610167,18.933,33.210,NaN,NaN
20040716,023439,277135,29.888167,-123.611000,18.930,33.211,NaN,NaN
20040716,023509,277165,29.889333,-123.611667,18.926,33.211,NaN,NaN
20040716,023539,277195,29.890500,-123.612667,18.922,33.211,NaN,NaN
20040716,023609,277225,29.891667,-123.613500,18.922,33.209,NaN,NaN
20040716,023639,277255,29.892833,-123.614167,18.922,33.209,NaN,NaN
20040716,023709,277285,29.894000,-123.615000,18.923,33.209,NaN,NaN
20040716,023739,277315,29.895000,-123.615833,18.921,33.208,NaN,NaN
20040716,023809,277345,29.896167,-123.616667,18.921,33.207,NaN,NaN
20040716,023839,277375,29.897333,-123.617500,18.923,33.208,NaN,NaN
20040716,023909,277405,29.898500,-123.618167,18.926,33.208,NaN,NaN
20040716,023939,277435,29.899667,-123.619000,18.926,33.210,NaN,NaN
20040716,024009,277465,29.900833,-123.619833,18.927,33.209,NaN,NaN
20040716,024039,277495,29.901833,-123.620500,18.928,33.209,NaN,NaN
20040716,024109,277525,29.903000,-123.621333,18.927,33.208,NaN,NaN
20040716,024139,277555,29.904000,-123.622167,18.925,33.209,NaN,NaN
20040716,024209,277585,29.905000,-123.623000,18.923,33.209,NaN,NaN
20040716,024239,277615,29.906167,-123.623667,18.921,33.209,NaN,NaN
20040716,024309,277645,29.907167,-123.624500,18.921,33.209,NaN,NaN
20040716,024339,277675,29.908333,-123.625167,18.920,33.208,NaN,NaN
20040716,024409,277705,29.909333,-123.625833,18.918,33.208,NaN,NaN
20040716,024439,277735,29.910500,-123.626667,18.921,33.209,NaN,NaN
20040716,024509,277765,29.911500,-123.627500,18.923,33.209,NaN,NaN
20040716,024539,277795,29.912667,-123.628333,18.924,33.209,NaN,NaN
20040716,024609,277825,29.913667,-123.629000,18.925,33.209,NaN,NaN
20040716,024639,277855,29.914833,-123.629833,18.925,33.209,NaN,NaN
20040716,024709,277885,29.916000,-123.630667,18.925,33.210,NaN,NaN
20040716,024739,277915,29.917000,-123.631500,18.926,33.210,NaN,NaN
20040716,024809,277945,29.918167,-123.632167,18.928,33.210,NaN,NaN
20040716,024839,277975,29.919333,-123.633000,18.930,33.210,NaN,NaN
20040716,024909,278005,29.920500,-123.633833,18.934,33.209,NaN,NaN
20040716,024939,278035,29.921500,-123.634667,18.936,33.210,NaN,NaN
20040716,025009,278065,29.922667,-123.635333,18.936,33.209,NaN,NaN
20040716,025039,278095,29.923833,-123.636167,18.936,33.209,NaN,NaN
20040716,025109,278125,29.925000,-123.637000,18.938,33.209,NaN,NaN
20040716,025139,278155,29.926167,-123.637667,18.940,33.209,NaN,NaN
20040716,025209,278185,29.927333,-123.638500,18.943,33.213,NaN,NaN
20040716,025239,278215,29.928333,-123.639333,18.946,33.213,NaN,NaN
20040716,025309,278245,29.929500,-123.640167,18.949,33.212,NaN,NaN
20040716,025339,278275,29.930667,-123.640833,18.945,33.213,NaN,NaN
20040716,025409,278305,29.931833,-123.641667,18.944,33.212,NaN,NaN
20040716,025439,278335,29.932833,-123.642500,18.944,33.211,NaN,NaN
20040716,025509,278365,29.934000,-123.643167,18.943,33.212,NaN,NaN
20040716,025539,278395,29.935167,-123.644000,18.947,33.212,NaN,NaN